AIB777A EDHI-EDDF

Flight info

Callsign AIB777A
Flight time 0h 49m
Altitude 34000
Route AMLUH1W AMLUH M852 DENIX DCT RIMET T157 KERAX KERAX5A
Aircraft A21N/M-SDE2E3FGHIRWXY/LB1

Departure

Time 2026-05-04 19:19
Airport Hamburg-Finkenwerder Airport (EDHI)

Arrival

Time 2026-05-04 20:09
Airport Frankfurt Main Airport (EDDF)
Time Latitude Longitude Altitude Speed Heading
2026-05-04 18:53 53.53773 9.82543 27 ft 0 kts 15°
2026-05-04 19:09 53.53762 9.82538 27 ft 4 kts 15°
2026-05-04 19:09 53.53736 9.82526 27 ft 4 kts 15°
2026-05-04 19:09 53.53713 9.82515 27 ft 4 kts 27°
2026-05-04 19:10 53.53700 9.82493 27 ft 4 kts 80°
2026-05-04 19:10 53.53701 9.82453 27 ft 2 kts 105°
2026-05-04 19:10 53.53703 9.82444 27 ft 0 kts 105°
2026-05-04 19:14 53.53703 9.82445 27 ft 1 kts 105°
2026-05-04 19:14 53.53700 9.82459 27 ft 3 kts 105°
2026-05-04 19:14 53.53692 9.82510 27 ft 6 kts 105°
2026-05-04 19:14 53.53673 9.82604 27 ft 10 kts 117°
2026-05-04 19:15 53.53621 9.82712 27 ft 14 kts 139°
2026-05-04 19:15 53.53536 9.82826 27 ft 17 kts 142°
2026-05-04 19:15 53.53433 9.82962 27 ft 20 kts 141°
2026-05-04 19:15 53.53346 9.83082 27 ft 10 kts 127°
2026-05-04 19:16 53.53366 9.83204 28 ft 14 kts 51°
2026-05-04 19:16 53.53439 9.83357 27 ft 20 kts 51°
2026-05-04 19:16 53.53538 9.83566 26 ft 25 kts 52°
2026-05-04 19:16 53.53662 9.83828 26 ft 32 kts 51°
2026-05-04 19:17 53.53806 9.84134 28 ft 34 kts 52°
2026-05-04 19:17 53.53959 9.84458 29 ft 36 kts 50°
2026-05-04 19:17 53.54113 9.84781 29 ft 36 kts 53°
2026-05-04 19:17 53.54207 9.84995 30 ft 11 kts 63°
2026-05-04 19:18 53.54243 9.85085 32 ft 5 kts 11°
2026-05-04 19:18 53.54247 9.85060 32 ft 3 kts 224°
2026-05-04 19:18 53.54229 9.85034 31 ft 4 kts 232°
2026-05-04 19:18 53.54226 9.85027 31 ft 0 kts 233°
2026-05-04 19:19 53.54222 9.85018 31 ft 9 kts 233°
2026-05-04 19:19 53.53978 9.84498 29 ft 108 kts 232°
2026-05-04 19:19 53.53338 9.83154 216 ft 168 kts 232°
2026-05-04 19:19 53.52580 9.81632 1212 ft 173 kts 231°
2026-05-04 19:20 53.51837 9.80126 2146 ft 183 kts 232°
2026-05-04 19:20 53.50981 9.78338 2870 ft 211 kts 232°
2026-05-04 19:20 53.50054 9.76346 3993 ft 220 kts 232°
2026-05-04 19:20 53.49102 9.74281 5362 ft 225 kts 232°
2026-05-04 19:21 53.47939 9.72529 6683 ft 230 kts 205°
2026-05-04 19:21 53.46348 9.72307 7893 ft 239 kts 166°
2026-05-04 19:21 53.44882 9.73643 9124 ft 246 kts 152°
2026-05-04 19:21 53.43340 9.74928 9857 ft 253 kts 161°
2026-05-04 19:22 53.41763 9.76256 9965 ft 257 kts 147°
2026-05-04 19:22 53.40572 9.78536 9982 ft 278 kts 120°
2026-05-04 19:22 53.40026 9.81941 10148 ft 326 kts 99°
2026-05-04 19:22 53.39456 9.85603 10591 ft 350 kts 116°
2026-05-04 19:23 53.38046 9.88960 11446 ft 357 kts 135°
2026-05-04 19:23 53.36313 9.91994 12529 ft 363 kts 135°
2026-05-04 19:23 53.34643 9.95216 13649 ft 371 kts 131°
2026-05-04 19:23 53.33040 9.98651 14651 ft 378 kts 129°
2026-05-04 19:24 53.31469 10.02220 15639 ft 384 kts 128°
2026-05-04 19:24 53.29903 10.05863 16630 ft 390 kts 127°
2026-05-04 19:24 53.28313 10.09602 17600 ft 397 kts 127°
2026-05-04 19:24 53.26724 10.13335 18473 ft 403 kts 127°
2026-05-04 19:25 53.25084 10.17181 19315 ft 409 kts 128°
2026-05-04 19:25 53.23428 10.21064 20186 ft 413 kts 128°
2026-05-04 19:25 53.21753 10.24982 21029 ft 417 kts 128°
2026-05-04 19:25 53.20059 10.28935 21820 ft 421 kts 129°
2026-05-04 19:26 53.18344 10.32945 22567 ft 426 kts 129°
2026-05-04 19:26 53.16561 10.36895 23247 ft 427 kts 135°
2026-05-04 19:26 53.14412 10.40298 23781 ft 425 kts 147°
2026-05-04 19:26 53.11895 10.42809 24305 ft 420 kts 160°
2026-05-04 19:27 53.09137 10.44329 24780 ft 415 kts 172°
2026-05-04 19:27 53.06285 10.44824 25277 ft 411 kts 185°
2026-05-04 19:27 53.03426 10.44520 25945 ft 412 kts 189°
2026-05-04 19:27 53.00556 10.44073 26620 ft 415 kts 189°
2026-05-04 19:28 52.97665 10.43633 27273 ft 419 kts 189°
2026-05-04 19:28 52.94782 10.43217 27920 ft 422 kts 189°
2026-05-04 19:28 52.91844 10.42808 28561 ft 426 kts 189°
2026-05-04 19:28 52.88892 10.42409 29272 ft 426 kts 189°
2026-05-04 19:29 52.85945 10.42016 29774 ft 418 kts 189°
2026-05-04 19:29 52.83080 10.41630 29934 ft 414 kts 190°
2026-05-04 19:29 52.80184 10.41230 29963 ft 418 kts 190°
2026-05-04 19:30 52.74379 10.40441 29956 ft 418 kts 189°
2026-05-04 19:30 52.68576 10.39655 29953 ft 418 kts 189°
2026-05-04 19:31 52.62763 10.38872 29957 ft 418 kts 189°
2026-05-04 19:31 52.56953 10.38091 29969 ft 418 kts 189°
2026-05-04 19:32 52.51231 10.37320 29968 ft 421 kts 189°
2026-05-04 19:32 52.45383 10.36537 29982 ft 421 kts 189°
2026-05-04 19:33 52.39540 10.35753 29986 ft 421 kts 189°
2026-05-04 19:33 52.33689 10.34977 29990 ft 421 kts 189°
2026-05-04 19:34 52.27841 10.34205 29974 ft 422 kts 189°
2026-05-04 19:34 52.21974 10.33431 29979 ft 422 kts 189°
2026-05-04 19:35 52.16111 10.32657 29986 ft 422 kts 189°
2026-05-04 19:35 52.10255 10.31887 29980 ft 422 kts 189°
2026-05-04 19:36 52.04437 10.31124 29967 ft 421 kts 189°
2026-05-04 19:36 51.98587 10.30357 29971 ft 421 kts 189°
2026-05-04 19:37 51.92748 10.29589 29961 ft 422 kts 189°
2026-05-04 19:37 51.86863 10.28826 29988 ft 425 kts 189°
2026-05-04 19:38 51.81006 10.28066 29981 ft 419 kts 189°
2026-05-04 19:38 51.75213 10.27316 29437 ft 415 kts 189°
2026-05-04 19:38 51.72330 10.26942 29054 ft 417 kts 189°
2026-05-04 19:39 51.69470 10.26576 28752 ft 417 kts 189°
2026-05-04 19:39 51.66579 10.26205 28472 ft 416 kts 189°
2026-05-04 19:39 51.63698 10.25836 28199 ft 414 kts 189°
2026-05-04 19:39 51.60835 10.25469 27958 ft 413 kts 189°
2026-05-04 19:40 51.57971 10.25101 27704 ft 412 kts 188°
2026-05-04 19:40 51.55118 10.24734 27468 ft 410 kts 188°
2026-05-04 19:40 51.52272 10.24368 27218 ft 409 kts 188°
2026-05-04 19:40 51.49442 10.24006 26979 ft 408 kts 188°
2026-05-04 19:41 51.46615 10.23644 26738 ft 407 kts 188°
2026-05-04 19:41 51.43799 10.23285 26486 ft 405 kts 188°
2026-05-04 19:41 51.40990 10.22924 26239 ft 404 kts 188°
2026-05-04 19:41 51.38192 10.22567 25998 ft 403 kts 188°
2026-05-04 19:42 51.35407 10.22175 25584 ft 399 kts 190°
2026-05-04 19:42 51.32791 10.21309 24985 ft 388 kts 199°
2026-05-04 19:42 51.30329 10.19734 24640 ft 378 kts 207°
2026-05-04 19:42 51.27944 10.17914 24367 ft 387 kts 207°
2026-05-04 19:43 51.25487 10.16019 24119 ft 387 kts 207°
2026-05-04 19:43 51.23096 10.14189 23986 ft 387 kts 207°
2026-05-04 19:43 51.20668 10.12349 23974 ft 387 kts 207°
2026-05-04 19:43 51.18227 10.10512 23981 ft 387 kts 207°
2026-05-04 19:44 51.15794 10.08682 24000 ft 387 kts 207°
2026-05-04 19:44 51.13356 10.06851 24004 ft 387 kts 207°
2026-05-04 19:44 51.10922 10.05026 24009 ft 387 kts 207°
2026-05-04 19:44 51.08485 10.03208 24007 ft 387 kts 206°
2026-05-04 19:45 51.06054 10.01396 23906 ft 384 kts 207°
2026-05-04 19:45 51.03654 9.99602 23063 ft 379 kts 207°
2026-05-04 19:45 51.01295 9.97845 22066 ft 378 kts 206°
2026-05-04 19:45 50.98912 9.96077 21048 ft 377 kts 206°
2026-05-04 19:46 50.96538 9.94312 20066 ft 377 kts 206°
2026-05-04 19:46 50.94162 9.92547 19110 ft 376 kts 206°
2026-05-04 19:46 50.91805 9.90800 18394 ft 370 kts 206°
2026-05-04 19:46 50.89520 9.89105 17942 ft 355 kts 206°
2026-05-04 19:47 50.87293 9.87460 17574 ft 353 kts 206°
2026-05-04 19:47 50.85101 9.85838 17242 ft 343 kts 206°
2026-05-04 19:47 50.82958 9.84257 16902 ft 344 kts 206°
2026-05-04 19:47 50.80685 9.82576 16562 ft 385 kts 206°
2026-05-04 19:48 50.78175 9.80723 16174 ft 411 kts 206°
2026-05-04 19:48 50.75604 9.78833 15755 ft 407 kts 206°
2026-05-04 19:48 50.73039 9.76943 15316 ft 405 kts 206°
2026-05-04 19:48 50.70499 9.75073 14881 ft 402 kts 205°
2026-05-04 19:49 50.67971 9.73212 14456 ft 400 kts 205°
2026-05-04 19:49 50.66301 9.71984 14179 ft 398 kts 205°
2026-05-04 19:49 50.63802 9.70151 13776 ft 396 kts 205°
2026-05-04 19:49 50.61303 9.68326 13329 ft 393 kts 205°
2026-05-04 19:50 50.58832 9.66520 12891 ft 390 kts 205°
2026-05-04 19:50 50.56440 9.64775 12474 ft 367 kts 205°
2026-05-04 19:50 50.54198 9.63146 12180 ft 344 kts 205°
2026-05-04 19:50 50.52093 9.61613 11928 ft 322 kts 205°
2026-05-04 19:51 50.50128 9.60169 11693 ft 303 kts 207°
2026-05-04 19:51 50.48418 9.58421 11411 ft 286 kts 221°
2026-05-04 19:51 50.47186 9.56066 11093 ft 278 kts 238°
2026-05-04 19:51 50.46461 9.53249 10979 ft 279 kts 251°
2026-05-04 19:52 50.45927 9.50319 10973 ft 279 kts 251°
2026-05-04 19:52 50.45399 9.47431 10977 ft 279 kts 251°
2026-05-04 19:52 50.44855 9.44527 10985 ft 270 kts 251°
2026-05-04 19:52 50.44341 9.41801 10913 ft 253 kts 251°
2026-05-04 19:53 50.43861 9.39196 10663 ft 245 kts 251°
2026-05-04 19:53 50.43388 9.36653 10382 ft 242 kts 251°
2026-05-04 19:53 50.42912 9.34124 10114 ft 241 kts 250°
2026-05-04 19:53 50.42430 9.31614 9837 ft 240 kts 251°
2026-05-04 19:54 50.41960 9.29107 9529 ft 239 kts 251°
2026-05-04 19:54 50.41482 9.26610 9238 ft 239 kts 250°
2026-05-04 19:54 50.40987 9.24179 8943 ft 237 kts 248°
2026-05-04 19:54 50.40429 9.21754 8652 ft 236 kts 247°
2026-05-04 19:55 50.39872 9.19364 8374 ft 235 kts 247°
2026-05-04 19:55 50.39313 9.16957 8072 ft 235 kts 247°
2026-05-04 19:55 50.38749 9.14557 7779 ft 234 kts 247°
2026-05-04 19:55 50.38185 9.12174 7488 ft 233 kts 247°
2026-05-04 19:56 50.37625 9.09789 7194 ft 233 kts 247°
2026-05-04 19:56 50.37072 9.07408 6920 ft 232 kts 247°
2026-05-04 19:56 50.36520 9.05033 6646 ft 232 kts 248°
2026-05-04 19:56 50.35971 9.02658 6364 ft 231 kts 247°
2026-05-04 19:57 50.35417 9.00299 6086 ft 231 kts 248°
2026-05-04 19:57 50.34866 8.97945 5818 ft 230 kts 248°
2026-05-04 19:57 50.34315 8.95584 5556 ft 231 kts 248°
2026-05-04 19:57 50.33761 8.93228 5293 ft 230 kts 248°
2026-05-04 19:58 50.33205 8.90879 5030 ft 230 kts 248°
2026-05-04 19:58 50.32604 8.88600 4762 ft 229 kts 238°
2026-05-04 19:58 50.31477 8.86876 4491 ft 229 kts 209°
2026-05-04 19:58 50.29951 8.86237 4319 ft 230 kts 180°
2026-05-04 19:59 50.28405 8.86833 4188 ft 231 kts 152°
2026-05-04 19:59 50.27107 8.88196 4093 ft 232 kts 144°
2026-05-04 19:59 50.25820 8.89719 3996 ft 232 kts 141°
2026-05-04 19:59 50.24798 8.91613 3989 ft 233 kts 125°
2026-05-04 20:00 50.23906 8.93732 4003 ft 233 kts 124°
2026-05-04 20:00 50.23028 8.95861 4015 ft 233 kts 123°
2026-05-04 20:00 50.22147 8.97988 4020 ft 233 kts 125°
2026-05-04 20:00 50.20962 8.99674 4016 ft 232 kts 153°
2026-05-04 20:01 50.19489 9.00553 4032 ft 219 kts 163°
2026-05-04 20:01 50.18084 9.01190 4014 ft 202 kts 172°
2026-05-04 20:01 50.16731 9.00922 4006 ft 198 kts 205°
2026-05-04 20:01 50.15681 8.99556 4014 ft 199 kts 231°
2026-05-04 20:02 50.14847 8.97822 4023 ft 199 kts 233°
2026-05-04 20:02 50.14033 8.96073 4019 ft 199 kts 233°
2026-05-04 20:02 50.13223 8.94327 4015 ft 199 kts 233°
2026-05-04 20:02 50.12414 8.92583 4015 ft 194 kts 233°
2026-05-04 20:03 50.11743 8.90900 3999 ft 178 kts 243°
2026-05-04 20:03 50.11259 8.89119 3997 ft 179 kts 249°
2026-05-04 20:03 50.10824 8.87298 4003 ft 179 kts 249°
2026-05-04 20:03 50.10391 8.85477 3903 ft 178 kts 249°
2026-05-04 20:04 50.09960 8.83667 3714 ft 178 kts 249°
2026-05-04 20:04 50.09530 8.81858 3492 ft 177 kts 249°
2026-05-04 20:04 50.09103 8.80064 3258 ft 176 kts 250°
2026-05-04 20:04 50.08677 8.78272 3029 ft 176 kts 250°
2026-05-04 20:05 50.08249 8.76475 2795 ft 177 kts 250°
2026-05-04 20:05 50.07823 8.74684 2553 ft 176 kts 250°
2026-05-04 20:05 50.07403 8.72918 2339 ft 176 kts 250°
2026-05-04 20:05 50.06976 8.71126 2142 ft 176 kts 251°
2026-05-04 20:06 50.06557 8.69364 1913 ft 168 kts 251°
2026-05-04 20:06 50.06164 8.67716 1677 ft 159 kts 251°
2026-05-04 20:06 50.05786 8.66151 1403 ft 147 kts 251°
2026-05-04 20:06 50.05448 8.64727 1172 ft 136 kts 251°
2026-05-04 20:07 50.05125 8.63363 1015 ft 133 kts 251°
2026-05-04 20:07 50.04804 8.62019 878 ft 133 kts 251°
2026-05-04 20:07 50.04483 8.60668 723 ft 133 kts 251°
2026-05-04 20:07 50.04161 8.59307 507 ft 135 kts 250°
2026-05-04 20:08 50.03835 8.57950 376 ft 131 kts 250°
2026-05-04 20:08 50.03531 8.56677 361 ft 110 kts 251°
2026-05-04 20:08 50.03338 8.55857 355 ft 54 kts 250°
2026-05-04 20:08 50.03215 8.55337 357 ft 50 kts 250°
2026-05-04 20:09 50.03100 8.54862 352 ft 33 kts 249°
2026-05-04 20:09 50.03059 8.54696 347 ft 11 kts 250°
2026-05-04 20:09 50.03103 8.54599 352 ft 15 kts 340°
2026-05-04 20:09 50.03177 8.54558 351 ft 10 kts 340°
2026-05-04 20:10 50.03230 8.54529 346 ft 9 kts 348°
2026-05-04 20:10 50.03284 8.54603 346 ft 15 kts 69°
2026-05-04 20:10 50.03334 8.54812 349 ft 26 kts 70°
2026-05-04 20:10 50.03406 8.55115 352 ft 31 kts 69°
2026-05-04 20:11 50.03485 8.55444 353 ft 34 kts 69°
2026-05-04 20:11 50.03570 8.55795 357 ft 36 kts 69°
2026-05-04 20:11 50.03646 8.56115 360 ft 35 kts 70°
2026-05-04 20:11 50.03732 8.56475 361 ft 35 kts 70°
2026-05-04 20:12 50.03817 8.56832 361 ft 35 kts 69°
2026-05-04 20:12 50.03902 8.57188 367 ft 36 kts 70°
2026-05-04 20:12 50.03988 8.57550 372 ft 35 kts 70°
2026-05-04 20:12 50.04071 8.57901 372 ft 32 kts 70°
2026-05-04 20:13 50.04122 8.58102 373 ft 14 kts 56°
2026-05-04 20:13 50.04209 8.58187 372 ft 14 kts 25°
2026-05-04 20:13 50.04274 8.58210 372 ft 5 kts 346°
2026-05-04 20:13 50.04284 8.58205 372 ft 0 kts 340°
2026-05-04 20:15 50.04285 8.58205 372 ft 1 kts 340°
2026-05-04 20:15 50.04321 8.58184 373 ft 9 kts 340°
2026-05-04 20:15 50.04394 8.58143 373 ft 13 kts 340°
2026-05-04 20:16 50.04490 8.58087 371 ft 16 kts 339°
2026-05-04 20:16 50.04592 8.58027 367 ft 11 kts 340°
2026-05-04 20:16 50.04639 8.58000 364 ft 3 kts 340°
2026-05-04 20:16 50.04641 8.57999 364 ft 0 kts 341°